Home   Weather   Praia   Past weeks
Flag for Cabo Verde

Past Weather in Praia, Cabo Verde — Yesterday and Last 2 Weeks

Now
73 °F

Scattered clouds.


Feels Like: 76 °F
Forecast: 80 / 71 °F
Wind: 17 mph from Northeast

Location: Sal

Current Time: May 22, 2019 at 8:26:41 am

Latest Report: May 22, 2019 at 8:00 am


Visibility: N/A

Pressure: 30.01 "Hg

Humidity: 69%

Dew Point: 63 °F

Location of PraiaLocation

Past Weather in Praia — Graph

°F

Praia Temperature Yesterday

Maximum temperature yesterday: 79 °F (at 1:00 pm)
Minimum temperature yesterday: 72 °F (at 12:00 am)
Average temperature yesterday: 74 °F

High & Low Weather Summary for the Past Weeks

 TemperatureHumidityPressure
High82 °F (May 18, 2:00 pm)88% (May 7, 11:00 pm)30.04 "Hg (May 7, 11:00 pm)
Low68 °F (May 12, 3:00 am)48% (May 16, 2:00 pm)29.83 "Hg (May 10, 3:00 pm)
Average74 °F69%29.95 "Hg
* Reported May 7 7:00 am — May 22 7:00 am, Praia. Weather by CustomWeather, © 2019

Note: Actual official high and low records may vary slightly from our data, if they occured in-between our weather recording intervals... More about our weather records

Advertising

Praia Weather History for the Previous 24 Hours

Scroll right to see more
 ConditionsComfort  
Time TempWeatherWind HumidityBarometerVisibility
7:00 am
Wed, May 22
72 °FScattered clouds.14 mph73%29.98 "HgN/A
6:00 am72 °FPartly sunny.15 mph73%29.98 "HgN/A
5:00 am70 °FScattered clouds.13 mph78%29.98 "HgN/A
4:00 am72 °FPartly sunny.13 mph73%29.98 "HgN/A
3:00 am72 °FPassing clouds.13 mph73%29.98 "HgN/A
2:00 am72 °FPassing clouds.12 mph73%29.98 "HgN/A
1:00 am72 °FPassing clouds.12 mph73%30.01 "HgN/A
12:00 am72 °FPassing clouds.12 mph73%30.01 "HgN/A
11:00 pm
Tue, May 21
72 °FPassing clouds.12 mph73%30.04 "HgN/A
10:00 pm72 °FPassing clouds.14 mph73%30.01 "HgN/A
9:00 pm73 °FPassing clouds.14 mph69%29.98 "HgN/A
8:00 pm73 °FPassing clouds.14 mph69%29.98 "HgN/A
7:00 pm73 °FPassing clouds.16 mph69%29.98 "HgN/A
6:00 pm75 °FPassing clouds.16 mph65%29.98 "HgN/A
5:00 pm77 °FPassing clouds.17 mph65%29.95 "HgN/A
4:00 pm79 °FScattered clouds.17 mph58%29.95 "HgN/A
3:00 pm79 °FScattered clouds.16 mph58%29.95 "HgN/A
2:00 pm79 °FBroken clouds.15 mph58%29.98 "HgN/A
1:00 pm79 °FBroken clouds.15 mph58%29.98 "HgN/A
8:00 am73 °FPartly sunny.13 mph69%29.98 "HgN/A
Weather by CustomWeather, © 2019

See weather overview